28.03.2024;13:59;94,565;
28.03.2024;13:49;94,567;
28.03.2024;13:39;94,566;
28.03.2024;13:29;94,565;
28.03.2024;13:19;94,570;
28.03.2024;13:09;94,565;
28.03.2024;12:59;94,568;
28.03.2024;12:49;94,568;
28.03.2024;12:39;94,566;
28.03.2024;12:29;94,567;
28.03.2024;12:19;94,565;
28.03.2024;12:09;94,570;
28.03.2024;11:59;94,567;
28.03.2024;11:48;94,568;
28.03.2024;11:39;94,569;
28.03.2024;11:29;94,566;
28.03.2024;11:19;94,569;
28.03.2024;10:49;94,569;
28.03.2024;10:39;94,568;
28.03.2024;10:28;94,568;
28.03.2024;10:19;94,565;
28.03.2024;10:09;94,571;
28.03.2024;09:58;94,566;
28.03.2024;09:49;94,570;
28.03.2024;09:39;94,569;
28.03.2024;09:29;94,570;
28.03.2024;09:19;94,570;
28.03.2024;09:09;94,567;
28.03.2024;08:59;94,566;
28.03.2024;08:49;94,566;
28.03.2024;08:39;94,568;
28.03.2024;08:28;94,568;
28.03.2024;08:19;94,568;
28.03.2024;08:08;94,569;
28.03.2024;07:59;94,568;
28.03.2024;07:49;94,566;
28.03.2024;07:39;94,566;
28.03.2024;07:29;94,571;
28.03.2024;07:19;94,568;
28.03.2024;07:09;94,568;
28.03.2024;06:59;94,569;
28.03.2024;06:49;94,569;
28.03.2024;06:39;94,572;
28.03.2024;06:29;94,567;
28.03.2024;06:09;94,571;
28.03.2024;05:58;94,572;
28.03.2024;05:49;94,572;
28.03.2024;05:39;94,570;
28.03.2024;05:28;94,572;
28.03.2024;05:19;94,571;
28.03.2024;05:09;94,573;
28.03.2024;04:59;94,570;
28.03.2024;04:49;94,573;
28.03.2024;04:39;94,571;
28.03.2024;04:29;94,569;
28.03.2024;04:18;94,568;
28.03.2024;04:08;94,570;
28.03.2024;03:59;94,572;
28.03.2024;03:49;94,569;
28.03.2024;03:38;94,573;
28.03.2024;03:29;94,569;
28.03.2024;03:18;94,572;
28.03.2024;03:09;94,567;
28.03.2024;02:59;94,573;
28.03.2024;02:49;94,570;
28.03.2024;02:38;94,572;
28.03.2024;02:29;94,570;
28.03.2024;02:18;94,572;
28.03.2024;02:09;94,573;
28.03.2024;01:49;94,573;
28.03.2024;01:38;94,574;
28.03.2024;01:29;94,573;
28.03.2024;01:19;94,573;
28.03.2024;01:09;94,576;
28.03.2024;00:59;94,573;
28.03.2024;00:49;94,576;
28.03.2024;00:39;94,572;
28.03.2024;00:29;94,576;
28.03.2024;00:19;94,575;
28.03.2024;00:09;94,572;
27.03.2024;23:59;94,578;
27.03.2024;23:49;94,570;
27.03.2024;23:39;94,577;
27.03.2024;23:29;94,571;
27.03.2024;23:19;94,575;
27.03.2024;23:09;94,577;
27.03.2024;22:59;94,573;
27.03.2024;22:39;94,575;
27.03.2024;22:18;94,574;
27.03.2024;22:09;94,574;
27.03.2024;21:59;94,575;
27.03.2024;21:49;94,574;
27.03.2024;21:39;94,573;
27.03.2024;21:29;94,578;
27.03.2024;21:19;94,574;
27.03.2024;21:09;94,576;
27.03.2024;20:49;94,576;
27.03.2024;20:39;94,579;
27.03.2024;20:29;94,575;
27.03.2024;20:19;94,581;
27.03.2024;20:09;94,574;
27.03.2024;19:59;94,578;
27.03.2024;19:49;94,576;
27.03.2024;19:39;94,576;
27.03.2024;19:29;94,581;
27.03.2024;19:19;94,579;
27.03.2024;19:09;94,578;
27.03.2024;18:59;94,579;
27.03.2024;18:38;94,579;
27.03.2024;18:29;94,579;
27.03.2024;18:19;94,578;
27.03.2024;18:08;94,579;
27.03.2024;17:59;94,579;
27.03.2024;17:48;94,579;
27.03.2024;17:39;94,580;
27.03.2024;17:29;94,578;
27.03.2024;17:09;94,577;
27.03.2024;16:59;94,580;
27.03.2024;16:48;94,578;
27.03.2024;16:39;94,578;
27.03.2024;16:29;94,581;
27.03.2024;16:18;94,577;
27.03.2024;16:09;94,579;
27.03.2024;15:58;94,580;
27.03.2024;15:49;94,580;
27.03.2024;15:39;94,578;
27.03.2024;15:28;94,579;
27.03.2024;15:19;94,579;
27.03.2024;15:09;94,579;
27.03.2024;14:59;94,579;
27.03.2024;14:49;94,578;
27.03.2024;14:39;94,581;
27.03.2024;14:29;94,583;
27.03.2024;14:19;94,579;
27.03.2024;14:09;94,579;
27.03.2024;13:59;94,581;
27.03.2024;13:39;94,581;
27.03.2024;13:29;94,580;
27.03.2024;13:19;94,582;
27.03.2024;13:09;94,579;
27.03.2024;12:59;94,582;
27.03.2024;12:49;94,579;
27.03.2024;12:39;94,583;
27.03.2024;12:19;94,584;
27.03.2024;12:09;94,581;
27.03.2024;11:59;94,582;
27.03.2024;11:49;94,581;
27.03.2024;11:39;94,584;
27.03.2024;11:29;94,582;
27.03.2024;11:18;94,583;
27.03.2024;11:09;94,583;
27.03.2024;10:59;94,583;
27.03.2024;10:49;94,582;
27.03.2024;10:39;94,585;
27.03.2024;10:29;94,584;
27.03.2024;10:09;94,588;
27.03.2024;09:59;94,583;
27.03.2024;09:49;94,586;
27.03.2024;09:39;94,582;
27.03.2024;09:29;94,586;
27.03.2024;09:19;94,587;
27.03.2024;09:09;94,584;
27.03.2024;08:59;94,588;
27.03.2024;08:49;94,585;
27.03.2024;08:39;94,586;
27.03.2024;08:29;94,588;
27.03.2024;08:19;94,583;
27.03.2024;08:09;94,588;
27.03.2024;07:49;94,584;
27.03.2024;07:39;94,588;
27.03.2024;07:29;94,583;
27.03.2024;07:19;94,586;
27.03.2024;07:09;94,584;
27.03.2024;06:59;94,585;
27.03.2024;06:49;94,587;
27.03.2024;06:39;94,587;
27.03.2024;06:29;94,585;
27.03.2024;06:19;94,585;
27.03.2024;06:09;94,587;
27.03.2024;05:58;94,587;
27.03.2024;05:49;94,584;
27.03.2024;05:39;94,588;
27.03.2024;05:29;94,586;
27.03.2024;05:19;94,588;
27.03.2024;05:09;94,584;
27.03.2024;04:59;94,587;
27.03.2024;04:48;94,589;
27.03.2024;04:39;94,586;
27.03.2024;04:29;94,587;
27.03.2024;04:19;94,586;
27.03.2024;04:09;94,593;
27.03.2024;03:59;94,590;
27.03.2024;03:49;94,589;
27.03.2024;03:39;94,586;
27.03.2024;03:29;94,589;
27.03.2024;03:19;94,585;
27.03.2024;03:09;94,587;
27.03.2024;02:49;94,589;
27.03.2024;02:39;94,589;
27.03.2024;02:29;94,588;
27.03.2024;02:09;94,590;
27.03.2024;01:39;94,590;
27.03.2024;01:29;94,593;
27.03.2024;01:09;94,592;
27.03.2024;00:49;94,592;
27.03.2024;00:39;94,593;
27.03.2024;00:29;94,591;
27.03.2024;00:19;94,592;
27.03.2024;00:09;94,592;
26.03.2024;23:59;94,593;
26.03.2024;23:49;94,592;
26.03.2024;23:39;94,592;
26.03.2024;23:29;94,594;
26.03.2024;23:19;94,591;
26.03.2024;23:09;94,590;
26.03.2024;22:59;94,592;
26.03.2024;22:49;94,594;
26.03.2024;22:39;94,592;
26.03.2024;22:29;94,590;
26.03.2024;22:19;94,593;
26.03.2024;22:09;94,593;
26.03.2024;21:59;94,593;
26.03.2024;21:49;94,594;
26.03.2024;21:39;94,593;
26.03.2024;21:19;94,593;
26.03.2024;21:09;94,593;
26.03.2024;20:49;94,594;
26.03.2024;20:38;94,593;
26.03.2024;20:29;94,594;
26.03.2024;20:19;94,594;
26.03.2024;20:09;94,595;
26.03.2024;19:59;94,596;
26.03.2024;19:49;94,595;
26.03.2024;19:29;94,595;
26.03.2024;19:18;94,594;
26.03.2024;19:09;94,597;
26.03.2024;18:59;94,596;
26.03.2024;18:49;94,595;
26.03.2024;18:39;94,597;
26.03.2024;18:29;94,595;
26.03.2024;18:18;94,597;
26.03.2024;18:09;94,594;
26.03.2024;17:59;94,598;
26.03.2024;17:49;94,596;
26.03.2024;17:39;94,598;
26.03.2024;17:29;94,597;
26.03.2024;17:19;94,597;
26.03.2024;17:09;94,598;
26.03.2024;16:59;94,597;
26.03.2024;16:49;94,599;
26.03.2024;16:39;94,597;
26.03.2024;16:29;94,598;
26.03.2024;16:19;94,596;
26.03.2024;16:09;94,597;
26.03.2024;15:59;94,597;
26.03.2024;15:49;94,598;
26.03.2024;15:39;94,599;
26.03.2024;15:29;94,597;
26.03.2024;15:19;94,596;
26.03.2024;14:59;94,599;
26.03.2024;14:49;94,598;
26.03.2024;14:39;94,599;
26.03.2024;14:19;94,601;
26.03.2024;14:09;94,599;
26.03.2024;13:59;94,601;
26.03.2024;13:49;94,600;
26.03.2024;13:39;94,598;
26.03.2024;13:28;94,602;
26.03.2024;13:19;94,599;
26.03.2024;13:09;94,601;
26.03.2024;12:59;94,601;
26.03.2024;12:49;94,601;
26.03.2024;12:19;94,602;
26.03.2024;12:09;94,602;
26.03.2024;11:59;94,600;
26.03.2024;11:49;94,603;
26.03.2024;11:39;94,601;
26.03.2024;11:19;94,600;
26.03.2024;11:09;94,602;
26.03.2024;10:59;94,602;
26.03.2024;10:49;94,602;
26.03.2024;10:39;94,603;
26.03.2024;10:29;94,604;
26.03.2024;10:09;94,603;
26.03.2024;09:59;94,601;
26.03.2024;09:49;94,603;
26.03.2024;09:39;94,602;
26.03.2024;09:29;94,605;
26.03.2024;09:19;94,603;
26.03.2024;08:59;94,606;
26.03.2024;08:49;94,602;
26.03.2024;08:39;94,605;
26.03.2024;08:29;94,604;
26.03.2024;08:19;94,605;
26.03.2024;08:08;94,607;
26.03.2024;07:59;94,604;
26.03.2024;07:49;94,604;
26.03.2024;07:39;94,604;
26.03.2024;07:29;94,607;
26.03.2024;07:19;94,605;
26.03.2024;07:09;94,607;
26.03.2024;06:59;94,606;
26.03.2024;06:49;94,605;
26.03.2024;06:39;94,604;
26.03.2024;06:29;94,605;
26.03.2024;06:19;94,604;
26.03.2024;06:09;94,606;
26.03.2024;05:59;94,607;
26.03.2024;05:48;94,605;
26.03.2024;05:29;94,604;
26.03.2024;05:19;94,605;
26.03.2024;05:09;94,604;
26.03.2024;04:59;94,606;
26.03.2024;04:49;94,606;
26.03.2024;04:39;94,605;
26.03.2024;04:29;94,606;
26.03.2024;04:19;94,607;
26.03.2024;04:09;94,604;
26.03.2024;03:59;94,607;
26.03.2024;03:49;94,607;
26.03.2024;03:39;94,608;
26.03.2024;03:29;94,605;
26.03.2024;03:19;94,606;
26.03.2024;03:09;94,608;
26.03.2024;02:59;94,605;
26.03.2024;02:48;94,608;
26.03.2024;02:39;94,606;
26.03.2024;02:29;94,608;
26.03.2024;02:19;94,606;
26.03.2024;02:09;94,605;
26.03.2024;01:49;94,607;
26.03.2024;01:39;94,607;
26.03.2024;01:29;94,607;
26.03.2024;01:19;94,605;
26.03.2024;01:09;94,606;
26.03.2024;00:59;94,607;
26.03.2024;00:49;94,607;
26.03.2024;00:39;94,608;
26.03.2024;00:29;94,610;
26.03.2024;00:19;94,608;
26.03.2024;00:09;94,608;
25.03.2024;23:59;94,609;
25.03.2024;23:49;94,608;
25.03.2024;23:39;94,609;
25.03.2024;23:29;94,607;
25.03.2024;23:19;94,607;
25.03.2024;23:08;94,611;
25.03.2024;22:59;94,610;
25.03.2024;22:49;94,607;
25.03.2024;22:39;94,610;
25.03.2024;22:29;94,610;
25.03.2024;22:19;94,611;
25.03.2024;22:09;94,610;
25.03.2024;21:59;94,609;
25.03.2024;21:49;94,609;
25.03.2024;21:39;94,610;
25.03.2024;21:29;94,610;
25.03.2024;21:19;94,609;
25.03.2024;21:08;94,611;
25.03.2024;20:59;94,611;
25.03.2024;20:49;94,613;
25.03.2024;20:39;94,612;
25.03.2024;20:29;94,612;
25.03.2024;20:19;94,611;
25.03.2024;20:09;94,612;
25.03.2024;19:59;94,612;
25.03.2024;19:49;94,612;
25.03.2024;19:19;94,613;
25.03.2024;19:09;94,614;
25.03.2024;18:59;94,613;
25.03.2024;18:49;94,613;
25.03.2024;18:39;94,614;
25.03.2024;18:29;94,615;
25.03.2024;18:19;94,616;
25.03.2024;18:09;94,614;
25.03.2024;17:59;94,612;
25.03.2024;17:49;94,616;
25.03.2024;17:29;94,612;
25.03.2024;17:19;94,612;
25.03.2024;17:09;94,612;
25.03.2024;16:59;94,615;
25.03.2024;16:49;94,613;
25.03.2024;16:39;94,615;
25.03.2024;16:29;94,614;
25.03.2024;16:19;94,614;
25.03.2024;16:09;94,614;
25.03.2024;15:58;94,613;
25.03.2024;15:49;94,615;
25.03.2024;15:39;94,613;
25.03.2024;15:29;94,613;
25.03.2024;15:09;94,615;
25.03.2024;14:59;94,615;
25.03.2024;14:48;94,615;
25.03.2024;14:39;94,615;
25.03.2024;14:29;94,614;
25.03.2024;14:18;94,616;
25.03.2024;13:59;94,616;
25.03.2024;13:49;94,613;
25.03.2024;13:39;94,614;
25.03.2024;13:29;94,615;
25.03.2024;13:19;94,614;
25.03.2024;13:09;94,615;
25.03.2024;12:59;94,614;
25.03.2024;12:49;94,613;
25.03.2024;12:39;94,614;
25.03.2024;12:29;94,614;
25.03.2024;12:19;94,614;
25.03.2024;12:09;94,615;
25.03.2024;11:59;94,613;
25.03.2024;11:49;94,612;
25.03.2024;11:29;94,615;
25.03.2024;11:19;94,612;
25.03.2024;11:09;94,616;
25.03.2024;10:59;94,614;
25.03.2024;10:49;94,616;
25.03.2024;10:39;94,615;
25.03.2024;10:29;94,615;
25.03.2024;10:19;94,616;
25.03.2024;10:09;94,614;
25.03.2024;09:59;94,614;
25.03.2024;09:49;94,615;
25.03.2024;09:39;94,614;
25.03.2024;09:29;94,614;
25.03.2024;09:19;94,615;
25.03.2024;09:09;94,616;
25.03.2024;08:59;94,613;
25.03.2024;08:49;94,615;
25.03.2024;08:39;94,615;
25.03.2024;08:29;94,616;
25.03.2024;08:19;94,615;
25.03.2024;08:09;94,616;
25.03.2024;07:58;94,618;
25.03.2024;07:49;94,615;
25.03.2024;07:39;94,617;
25.03.2024;07:29;94,616;
25.03.2024;07:19;94,616;
25.03.2024;06:58;94,617;
25.03.2024;06:49;94,619;
25.03.2024;06:39;94,617;
25.03.2024;06:29;94,618;
25.03.2024;06:09;94,617;
25.03.2024;05:59;94,617;
25.03.2024;05:49;94,616;
25.03.2024;05:39;94,618;
25.03.2024;05:29;94,616;
25.03.2024;05:19;94,616;
25.03.2024;05:09;94,615;
25.03.2024;04:59;94,617;
25.03.2024;04:49;94,616;
25.03.2024;04:39;94,615;
25.03.2024;04:29;94,615;
25.03.2024;04:19;94,616;
25.03.2024;04:09;94,615;
25.03.2024;03:59;94,616;
25.03.2024;03:49;94,615;
25.03.2024;03:39;94,614;
25.03.2024;03:29;94,617;
25.03.2024;03:19;94,614;
25.03.2024;03:09;94,615;
25.03.2024;02:59;94,613;
25.03.2024;02:49;94,616;
25.03.2024;02:39;94,612;
25.03.2024;02:29;94,613;
25.03.2024;02:19;94,612;
25.03.2024;02:09;94,612;
25.03.2024;01:59;94,612;
25.03.2024;01:49;94,610;
25.03.2024;01:39;94,610;
25.03.2024;01:29;94,612;
25.03.2024;01:19;94,610;
25.03.2024;01:09;94,611;
25.03.2024;00:59;94,610;
25.03.2024;00:39;94,609;
25.03.2024;00:29;94,611;
25.03.2024;00:19;94,611;
25.03.2024;00:09;94,610;
24.03.2024;23:59;94,613;
24.03.2024;23:49;94,611;
24.03.2024;23:39;94,612;
24.03.2024;23:29;94,610;
24.03.2024;23:18;94,612;
24.03.2024;23:09;94,612;
24.03.2024;22:59;94,613;
24.03.2024;22:49;94,612;
24.03.2024;22:39;94,612;
24.03.2024;22:29;94,614;
24.03.2024;22:19;94,611;
24.03.2024;22:09;94,613;
24.03.2024;21:59;94,612;
24.03.2024;21:49;94,612;
24.03.2024;21:39;94,612;
24.03.2024;21:29;94,613;
24.03.2024;21:19;94,612;
24.03.2024;21:09;94,613;
24.03.2024;20:59;94,613;
24.03.2024;20:49;94,613;
24.03.2024;20:39;94,613;
24.03.2024;20:29;94,613;
24.03.2024;20:19;94,614;
24.03.2024;20:09;94,615;
24.03.2024;19:59;94,616;
24.03.2024;19:49;94,615;
24.03.2024;19:39;94,616;
24.03.2024;19:29;94,617;
24.03.2024;19:19;94,616;
24.03.2024;19:09;94,616;
24.03.2024;18:49;94,616;
24.03.2024;18:39;94,616;
24.03.2024;18:19;94,615;
24.03.2024;18:09;94,616;
24.03.2024;17:59;94,617;
24.03.2024;17:49;94,617;
24.03.2024;17:29;94,616;
24.03.2024;17:19;94,616;
24.03.2024;17:09;94,616;
24.03.2024;16:59;94,618;
24.03.2024;16:39;94,617;
24.03.2024;16:29;94,619;
24.03.2024;16:19;94,617;
24.03.2024;16:09;94,619;
24.03.2024;15:59;94,615;
24.03.2024;15:49;94,618;
24.03.2024;15:39;94,617;
24.03.2024;15:29;94,618;
24.03.2024;15:19;94,618;
24.03.2024;15:09;94,616;
24.03.2024;14:59;94,617;
24.03.2024;14:49;94,617;
24.03.2024;14:29;94,618;
24.03.2024;14:19;94,617;
24.03.2024;13:59;94,616;
24.03.2024;13:49;94,618;
24.03.2024;13:39;94,617;
24.03.2024;13:19;94,617;
24.03.2024;13:09;94,617;
24.03.2024;12:59;94,618;
24.03.2024;12:49;94,618;
24.03.2024;12:39;94,618;
24.03.2024;12:29;94,618;
24.03.2024;12:19;94,618;
24.03.2024;12:09;94,618;
24.03.2024;11:59;94,618;
24.03.2024;11:39;94,620;
24.03.2024;11:29;94,618;
24.03.2024;11:19;94,619;
24.03.2024;11:09;94,620;
24.03.2024;10:59;94,620;
24.03.2024;10:49;94,623;
24.03.2024;10:39;94,620;
24.03.2024;10:29;94,624;
24.03.2024;10:19;94,622;
24.03.2024;10:09;94,621;
24.03.2024;09:59;94,624;
24.03.2024;09:49;94,623;
24.03.2024;09:39;94,624;
24.03.2024;09:29;94,623;
24.03.2024;09:19;94,623;
24.03.2024;09:09;94,623;
24.03.2024;08:59;94,621;
24.03.2024;08:49;94,622;
24.03.2024;08:39;94,622;
24.03.2024;08:29;94,622;
24.03.2024;08:09;94,623;
24.03.2024;07:59;94,622;
24.03.2024;07:49;94,621;
24.03.2024;07:39;94,622;
24.03.2024;07:29;94,622;
24.03.2024;07:19;94,621;
24.03.2024;07:09;94,623;
24.03.2024;06:59;94,622;
24.03.2024;06:49;94,622;
24.03.2024;06:29;94,621;
24.03.2024;06:19;94,623;
24.03.2024;06:09;94,621;
24.03.2024;05:59;94,622;
24.03.2024;05:49;94,620;
24.03.2024;05:39;94,620;
24.03.2024;05:29;94,620;
24.03.2024;05:19;94,618;
24.03.2024;05:09;94,619;
24.03.2024;04:59;94,620;
24.03.2024;04:49;94,617;
24.03.2024;04:39;94,619;
24.03.2024;04:29;94,619;
24.03.2024;04:19;94,619;
24.03.2024;04:09;94,618;
24.03.2024;03:59;94,619;
24.03.2024;03:49;94,619;
24.03.2024;03:39;94,617;
24.03.2024;03:29;94,621;
24.03.2024;03:09;94,617;
24.03.2024;02:39;94,616;
24.03.2024;02:29;94,617;
24.03.2024;02:19;94,615;
24.03.2024;01:59;94,612;
24.03.2024;01:39;94,612;
24.03.2024;01:29;94,611;
24.03.2024;01:19;94,613;
24.03.2024;01:09;94,611;
24.03.2024;00:59;94,612;
24.03.2024;00:39;94,613;
24.03.2024;00:29;94,611;
24.03.2024;00:19;94,612;
24.03.2024;00:09;94,615;
23.03.2024;23:49;94,613;
23.03.2024;23:39;94,614;
23.03.2024;23:29;94,613;
23.03.2024;23:19;94,613;
23.03.2024;23:09;94,615;
23.03.2024;22:49;94,615;
23.03.2024;22:39;94,618;
23.03.2024;22:29;94,613;
23.03.2024;22:19;94,618;
23.03.2024;22:09;94,614;
23.03.2024;21:59;94,617;
23.03.2024;21:49;94,618;
23.03.2024;21:39;94,615;
23.03.2024;21:29;94,615;
23.03.2024;21:19;94,613;
23.03.2024;21:09;94,618;
23.03.2024;20:59;94,614;
23.03.2024;20:49;94,618;
23.03.2024;20:39;94,617;
23.03.2024;20:29;94,616;
23.03.2024;20:19;94,618;
23.03.2024;20:09;94,616;
23.03.2024;19:59;94,616;
23.03.2024;19:49;94,616;
23.03.2024;19:39;94,616;
23.03.2024;19:29;94,619;
23.03.2024;19:19;94,617;
23.03.2024;19:09;94,616;
23.03.2024;18:59;94,619;
23.03.2024;18:49;94,619;
23.03.2024;18:39;94,620;
23.03.2024;18:29;94,620;
23.03.2024;18:19;94,621;
23.03.2024;18:09;94,620;
23.03.2024;17:49;94,622;
23.03.2024;17:39;94,619;
23.03.2024;16:59;94,620;
23.03.2024;16:49;94,617;
23.03.2024;16:39;94,620;
23.03.2024;16:29;94,620;
23.03.2024;16:19;94,618;
23.03.2024;16:09;94,619;
23.03.2024;15:59;94,618;
23.03.2024;15:49;94,619;
23.03.2024;15:39;94,618;
23.03.2024;15:29;94,618;
23.03.2024;15:19;94,616;
23.03.2024;15:09;94,618;
23.03.2024;14:59;94,618;
23.03.2024;14:49;94,616;
23.03.2024;14:39;94,619;
23.03.2024;14:29;94,618;
23.03.2024;14:09;94,619;
23.03.2024;13:59;94,620;
23.03.2024;13:39;94,618;
23.03.2024;13:29;94,617;
23.03.2024;13:19;94,619;
23.03.2024;12:59;94,620;
23.03.2024;12:49;94,620;
23.03.2024;12:39;94,621;
23.03.2024;12:29;94,621;
23.03.2024;12:19;94,617;
23.03.2024;12:09;94,620;
23.03.2024;11:59;94,621;
23.03.2024;11:49;94,622;
23.03.2024;11:39;94,621;
23.03.2024;11:29;94,621;
23.03.2024;11:19;94,622;
23.03.2024;11:09;94,619;
23.03.2024;10:59;94,621;
23.03.2024;10:49;94,622;
23.03.2024;10:39;94,621;
23.03.2024;10:19;94,619;
23.03.2024;10:09;94,621;
23.03.2024;09:59;94,619;
23.03.2024;09:49;94,621;
23.03.2024;09:39;94,620;
23.03.2024;09:29;94,621;
23.03.2024;09:19;94,622;
23.03.2024;09:09;94,621;
23.03.2024;08:59;94,622;
23.03.2024;08:49;94,621;
23.03.2024;08:29;94,623;
23.03.2024;08:19;94,621;
23.03.2024;08:09;94,622;
23.03.2024;07:59;94,620;
23.03.2024;07:39;94,623;
23.03.2024;07:29;94,619;
23.03.2024;07:19;94,622;
23.03.2024;07:09;94,621;
23.03.2024;06:59;94,624;
23.03.2024;06:49;94,620;
23.03.2024;06:39;94,624;
23.03.2024;06:29;94,623;
23.03.2024;06:19;94,622;
23.03.2024;06:09;94,624;
23.03.2024;05:59;94,624;
23.03.2024;05:49;94,621;
23.03.2024;05:39;94,625;
23.03.2024;05:29;94,621;
23.03.2024;05:19;94,621;
23.03.2024;05:09;94,625;
23.03.2024;04:59;94,620;
23.03.2024;04:49;94,623;
23.03.2024;04:39;94,618;
23.03.2024;04:29;94,623;
23.03.2024;04:19;94,620;
23.03.2024;04:09;94,620;
23.03.2024;03:59;94,622;
23.03.2024;03:49;94,616;
23.03.2024;03:29;94,618;
23.03.2024;03:19;94,619;
23.03.2024;03:09;94,619;
23.03.2024;02:59;94,617;
23.03.2024;02:49;94,618;
23.03.2024;02:39;94,618;
23.03.2024;02:29;94,615;
23.03.2024;02:19;94,616;
23.03.2024;02:09;94,618;
23.03.2024;01:59;94,617;
23.03.2024;01:49;94,616;
23.03.2024;01:39;94,616;
23.03.2024;01:29;94,615;
23.03.2024;01:19;94,616;
23.03.2024;01:09;94,615;
23.03.2024;00:59;94,617;
23.03.2024;00:49;94,613;
23.03.2024;00:39;94,615;
23.03.2024;00:29;94,613;
23.03.2024;00:19;94,612;
22.03.2024;23:59;94,614;
22.03.2024;23:49;94,615;
22.03.2024;23:39;94,613;
22.03.2024;23:29;94,613;
22.03.2024;23:09;94,613;
22.03.2024;22:59;94,613;
22.03.2024;22:49;94,613;
22.03.2024;22:39;94,613;
22.03.2024;22:29;94,613;
22.03.2024;22:19;94,614;
22.03.2024;22:09;94,613;
22.03.2024;21:59;94,613;
22.03.2024;21:49;94,613;
22.03.2024;21:39;94,612;
22.03.2024;21:29;94,613;
22.03.2024;21:19;94,611;
22.03.2024;21:09;94,613;
22.03.2024;20:59;94,611;
22.03.2024;20:49;94,610;
22.03.2024;20:39;94,611;
22.03.2024;20:19;94,613;
22.03.2024;19:59;94,614;
22.03.2024;19:49;94,613;
22.03.2024;19:39;94,611;
22.03.2024;19:29;94,615;
22.03.2024;19:19;94,611;
22.03.2024;19:09;94,615;
22.03.2024;18:59;94,613;
22.03.2024;18:49;94,614;
22.03.2024;18:29;94,612;
22.03.2024;18:19;94,613;
22.03.2024;18:09;94,612;
22.03.2024;17:59;94,612;
22.03.2024;17:49;94,611;
22.03.2024;17:39;94,610;
22.03.2024;17:19;94,611;
22.03.2024;17:09;94,612;
22.03.2024;16:59;94,612;
22.03.2024;16:49;94,613;
22.03.2024;16:39;94,612;
22.03.2024;16:29;94,610;
22.03.2024;15:59;94,609;
22.03.2024;15:49;94,612;
22.03.2024;15:39;94,606;
22.03.2024;15:29;94,611;
22.03.2024;15:19;94,611;
22.03.2024;15:09;94,610;
22.03.2024;14:59;94,611;
22.03.2024;14:49;94,611;
22.03.2024;14:39;94,614;
22.03.2024;14:29;94,613;
22.03.2024;14:09;94,610;
22.03.2024;13:59;94,610;
22.03.2024;13:49;94,610;
22.03.2024;13:39;94,611;
22.03.2024;13:29;94,611;
22.03.2024;13:19;94,609;
22.03.2024;13:09;94,613;
22.03.2024;12:59;94,608;
22.03.2024;12:49;94,611;
22.03.2024;12:39;94,605;
22.03.2024;12:29;94,608;
22.03.2024;12:19;94,607;
22.03.2024;12:09;94,605;
22.03.2024;11:59;94,610;
22.03.2024;11:49;94,608;
22.03.2024;11:29;94,611;
22.03.2024;11:19;94,607;
22.03.2024;11:09;94,616;
22.03.2024;10:59;94,608;
22.03.2024;10:49;94,615;
22.03.2024;10:39;94,608;
22.03.2024;10:29;94,606;
22.03.2024;10:19;94,613;
22.03.2024;10:09;94,608;
22.03.2024;09:59;94,614;
22.03.2024;09:49;94,607;
22.03.2024;09:29;94,614;
22.03.2024;08:39;94,610;
22.03.2024;08:29;94,610;
22.03.2024;08:19;94,612;
22.03.2024;07:59;94,609;
22.03.2024;07:49;94,611;
22.03.2024;07:39;94,610;
22.03.2024;07:29;94,612;
22.03.2024;07:19;94,613;
22.03.2024;07:09;94,612;
22.03.2024;06:49;94,608;
22.03.2024;06:39;94,612;
22.03.2024;06:29;94,612;
22.03.2024;06:19;94,611;
22.03.2024;06:09;94,615;
22.03.2024;05:59;94,611;
22.03.2024;05:49;94,615;
22.03.2024;05:39;94,611;
22.03.2024;05:29;94,619;
22.03.2024;05:19;94,613;
22.03.2024;05:09;94,614;
22.03.2024;04:59;94,613;
22.03.2024;04:49;94,614;
22.03.2024;04:39;94,615;
22.03.2024;04:29;94,614;
22.03.2024;04:19;94,612;
22.03.2024;04:09;94,614;
22.03.2024;03:59;94,616;
22.03.2024;03:49;94,612;
22.03.2024;03:39;94,613;
22.03.2024;03:29;94,615;
22.03.2024;03:19;94,612;
22.03.2024;03:09;94,614;
22.03.2024;02:59;94,610;
22.03.2024;02:49;94,611;
22.03.2024;02:39;94,613;
22.03.2024;02:29;94,611;
22.03.2024;02:19;94,610;
22.03.2024;02:09;94,611;
22.03.2024;01:59;94,611;
22.03.2024;01:39;94,611;
22.03.2024;01:29;94,611;
22.03.2024;01:09;94,614;
22.03.2024;00:59;94,609;
22.03.2024;00:49;94,610;
22.03.2024;00:19;94,608;
22.03.2024;00:09;94,611;
21.03.2024;23:59;94,611;
21.03.2024;23:49;94,608;
21.03.2024;23:39;94,607;
21.03.2024;23:29;94,609;
21.03.2024;23:19;94,608;
21.03.2024;23:09;94,609;
21.03.2024;22:59;94,607;
21.03.2024;22:49;94,609;
21.03.2024;22:39;94,605;
21.03.2024;22:29;94,606;
21.03.2024;22:19;94,607;
21.03.2024;22:09;94,607;
21.03.2024;21:59;94,607;
21.03.2024;21:49;94,607;
21.03.2024;21:39;94,607;
21.03.2024;21:29;94,609;
21.03.2024;21:19;94,608;
21.03.2024;21:09;94,607;
21.03.2024;20:59;94,606;
21.03.2024;20:49;94,607;
21.03.2024;20:39;94,608;
21.03.2024;20:29;94,605;
21.03.2024;20:19;94,607;
21.03.2024;20:09;94,610;
21.03.2024;19:59;94,608;
21.03.2024;19:49;94,607;
21.03.2024;19:29;94,608;
21.03.2024;19:19;94,612;
21.03.2024;19:09;94,608;
21.03.2024;18:49;94,609;
21.03.2024;18:29;94,610;
21.03.2024;18:19;94,609;
21.03.2024;18:09;94,612;
21.03.2024;17:59;94,610;
21.03.2024;17:49;94,609;
21.03.2024;17:39;94,610;
21.03.2024;17:29;94,612;
21.03.2024;17:19;94,611;
21.03.2024;17:09;94,610;
21.03.2024;16:59;94,614;
21.03.2024;16:49;94,611;
21.03.2024;16:29;94,611;
21.03.2024;16:19;94,610;
21.03.2024;16:09;94,612;
21.03.2024;15:59;94,611;
21.03.2024;15:49;94,614;
21.03.2024;15:39;94,612;
21.03.2024;15:29;94,612;
21.03.2024;15:19;94,613;
21.03.2024;15:09;94,611;
21.03.2024;14:59;94,612;
21.03.2024;14:49;94,610;
21.03.2024;14:39;94,612;
21.03.2024;14:29;94,612;
21.03.2024;14:19;94,613;
21.03.2024;14:09;94,612;
21.03.2024;13:59;94,613;
21.03.2024;13:49;94,612;
21.03.2024;13:39;94,613;
21.03.2024;13:29;94,613;
21.03.2024;13:19;94,614;
21.03.2024;13:09;94,611;
21.03.2024;12:59;94,615;
21.03.2024;12:49;94,613;
21.03.2024;12:39;94,613;